TimePST,TemperatureF,Dew PointF,Humidity,Sea Level PressureIn,VisibilityMPH,Wind Direction,Wind SpeedMPH,Gust SpeedMPH,PrecipitationIn,Events,Conditions,WindDirDegrees,DateUTC
12:15 AM,42.8,30.2,61,30.31,10.0,ESE,4.6,-,N/A,,Clear,120,2013-12-14 08:15:00
12:35 AM,42.8,30.2,61,30.31,10.0,ESE,5.8,-,N/A,,Clear,120,2013-12-14 08:35:00
12:55 AM,44.6,32.0,61,30.31,10.0,SE,6.9,-,N/A,,Clear,140,2013-12-14 08:55:00
1:15 AM,42.8,32.0,66,30.31,10.0,SE,5.8,-,N/A,,Clear,140,2013-12-14 09:15:00
1:35 AM,42.8,30.2,61,30.31,10.0,SE,5.8,-,N/A,,Clear,130,2013-12-14 09:35:00
1:55 AM,41.0,30.2,65,30.32,10.0,ESE,5.8,-,N/A,,Clear,120,2013-12-14 09:55:00
2:15 AM,41.0,30.2,65,30.33,10.0,ESE,6.9,-,N/A,,Clear,110,2013-12-14 10:15:00
2:35 AM,42.8,30.2,61,30.33,10.0,ESE,4.6,-,N/A,,Clear,110,2013-12-14 10:35:00
2:55 AM,41.0,30.2,65,30.33,10.0,East,5.8,-,N/A,,Clear,100,2013-12-14 10:55:00
3:15 AM,41.0,30.2,65,30.33,10.0,ESE,5.8,-,N/A,,Clear,110,2013-12-14 11:15:00
3:35 AM,42.8,30.2,61,30.32,10.0,East,5.8,-,N/A,,Clear,100,2013-12-14 11:35:00
3:55 AM,39.2,30.2,70,30.32,10.0,Calm,Calm,-,N/A,,Clear,0,2013-12-14 11:55:00
4:15 AM,39.2,30.2,70,30.33,10.0,Calm,Calm,-,N/A,,Clear,0,2013-12-14 12:15:00
4:35 AM,37.4,30.2,75,30.33,10.0,East,3.5,-,N/A,,Clear,100,2013-12-14 12:35:00
4:55 AM,39.2,30.2,70,30.33,10.0,Calm,Calm,-,N/A,,Clear,0,2013-12-14 12:55:00
5:15 AM,37.4,30.2,75,30.34,10.0,Calm,Calm,-,N/A,,Clear,0,2013-12-14 13:15:00
5:35 AM,35.6,30.2,81,30.34,10.0,Calm,Calm,-,N/A,,Clear,0,2013-12-14 13:35:00
5:55 AM,37.4,28.4,70,30.33,10.0,Calm,Calm,-,N/A,,Clear,0,2013-12-14 13:55:00
6:15 AM,39.2,28.4,65,30.34,10.0,ESE,4.6,-,N/A,,Clear,110,2013-12-14 14:15:00
6:35 AM,39.2,28.4,65,30.34,10.0,East,5.8,-,N/A,,Clear,100,2013-12-14 14:35:00
6:55 AM,39.2,28.4,65,30.34,10.0,East,6.9,-,N/A,,Clear,100,2013-12-14 14:55:00
7:15 AM,39.2,28.4,65,30.35,10.0,East,3.5,-,N/A,,Clear,90,2013-12-14 15:15:00
7:35 AM,39.2,28.4,65,30.36,10.0,East,6.9,-,N/A,,Clear,100,2013-12-14 15:35:00
7:55 AM,39.2,28.4,65,30.37,10.0,East,4.6,-,N/A,,Clear,100,2013-12-14 15:55:00
8:15 AM,42.8,28.4,57,30.37,10.0,ESE,4.6,-,N/A,,Clear,110,2013-12-14 16:15:00
8:35 AM,44.6,28.4,53,30.37,10.0,Calm,Calm,-,N/A,,Clear,0,2013-12-14 16:35:00
8:55 AM,48.2,28.4,46,30.37,10.0,Calm,Calm,-,N/A,,Clear,0,2013-12-14 16:55:00
9:15 AM,50.0,30.2,47,30.38,10.0,Calm,Calm,-,N/A,,Clear,0,2013-12-14 17:15:00
9:35 AM,51.8,28.4,41,30.39,10.0,East,3.5,-,N/A,,Clear,80,2013-12-14 17:35:00
9:55 AM,51.8,28.4,41,30.40,10.0,Calm,Calm,-,N/A,,Clear,0,2013-12-14 17:55:00
10:15 AM,51.8,30.2,44,30.40,10.0,Calm,Calm,-,N/A,,Clear,0,2013-12-14 18:15:00
10:35 AM,53.6,28.4,38,30.40,10.0,Calm,Calm,-,N/A,,Clear,0,2013-12-14 18:35:00
10:55 AM,55.4,28.4,36,30.40,10.0,Calm,Calm,-,N/A,,Clear,0,2013-12-14 18:55:00
11:15 AM,55.4,30.2,38,30.40,10.0,Calm,Calm,-,N/A,,Clear,0,2013-12-14 19:15:00
11:35 AM,57.2,28.4,33,30.39,10.0,Calm,Calm,-,N/A,,Clear,0,2013-12-14 19:35:00
11:55 AM,57.2,30.2,36,30.38,10.0,Calm,Calm,-,N/A,,Clear,0,2013-12-14 19:55:00
12:15 PM,57.2,30.2,36,30.37,10.0,SW,3.5,-,N/A,,Clear,220,2013-12-14 20:15:00
12:35 PM,57.2,32.0,38,30.36,10.0,Calm,Calm,-,N/A,,Clear,0,2013-12-14 20:35:00
12:55 PM,57.2,30.2,36,30.35,10.0,WSW,3.5,-,N/A,,Clear,240,2013-12-14 20:55:00
1:15 PM,57.2,32.0,38,30.34,10.0,Calm,Calm,-,N/A,,Clear,0,2013-12-14 21:15:00
1:35 PM,59.0,32.0,36,30.33,10.0,Calm,Calm,-,N/A,,Clear,0,2013-12-14 21:35:00
1:55 PM,57.2,33.8,41,30.33,10.0,Calm,Calm,-,N/A,,Clear,0,2013-12-14 21:55:00
2:15 PM,57.2,35.6,44,30.32,10.0,WNW,4.6,-,N/A,,Clear,300,2013-12-14 22:15:00
2:35 PM,57.2,35.6,44,30.32,10.0,West,3.5,-,N/A,,Clear,280,2013-12-14 22:35:00
2:55 PM,57.2,35.6,44,30.32,10.0,Calm,Calm,-,N/A,,Clear,0,2013-12-14 22:55:00
3:15 PM,57.2,33.8,41,30.32,10.0,Calm,Calm,-,N/A,,Clear,0,2013-12-14 23:15:00
3:35 PM,57.2,35.6,44,30.32,10.0,Calm,Calm,-,N/A,,Clear,0,2013-12-14 23:35:00
3:55 PM,57.2,35.6,44,30.32,10.0,West,3.5,-,N/A,,Clear,280,2013-12-14 23:55:00
4:15 PM,55.4,35.6,47,30.33,10.0,WSW,4.6,-,N/A,,Clear,250,2013-12-15 00:15:00
4:35 PM,53.6,33.8,47,30.33,10.0,Calm,Calm,-,N/A,,Clear,0,2013-12-15 00:35:00
4:55 PM,48.2,33.8,58,30.33,10.0,Calm,Calm,-,N/A,,Clear,0,2013-12-15 00:55:00
5:15 PM,42.8,32.0,66,30.33,10.0,Calm,Calm,-,N/A,,Clear,0,2013-12-15 01:15:00
5:35 PM,39.2,32.0,75,30.33,10.0,Calm,Calm,-,N/A,,Clear,0,2013-12-15 01:35:00
5:55 PM,39.2,32.0,75,30.33,10.0,Calm,Calm,-,N/A,,Clear,0,2013-12-15 01:55:00
6:15 PM,39.2,32.0,75,30.34,10.0,Calm,Calm,-,N/A,,Clear,0,2013-12-15 02:15:00
6:35 PM,39.2,33.8,81,30.34,10.0,Calm,Calm,-,N/A,,Clear,0,2013-12-15 02:35:00
6:55 PM,41.0,33.8,76,30.34,10.0,ESE,3.5,-,N/A,,Clear,110,2013-12-15 02:55:00
7:15 PM,42.8,33.8,70,30.35,10.0,Calm,Calm,-,N/A,,Clear,0,2013-12-15 03:15:00
7:35 PM,41.0,33.8,76,30.35,10.0,Calm,Calm,-,N/A,,Clear,0,2013-12-15 03:35:00
7:55 PM,48.2,35.6,62,30.35,10.0,East,4.6,-,N/A,,Clear,100,2013-12-15 03:55:00
8:15 PM,46.4,35.6,66,30.36,10.0,East,6.9,-,N/A,,Clear,100,2013-12-15 04:15:00
8:35 PM,48.2,33.8,58,30.36,10.0,ESE,6.9,-,N/A,,Clear,110,2013-12-15 04:35:00
8:55 PM,48.2,33.8,58,30.37,10.0,East,6.9,-,N/A,,Clear,100,2013-12-15 04:55:00
9:15 PM,46.4,33.8,62,30.37,10.0,East,5.8,-,N/A,,Clear,100,2013-12-15 05:15:00
9:35 PM,44.6,33.8,66,30.37,10.0,East,3.5,-,N/A,,Clear,100,2013-12-15 05:35:00
9:55 PM,46.4,32.0,57,30.37,10.0,Calm,Calm,-,N/A,,Clear,0,2013-12-15 05:55:00
10:15 PM,42.8,32.0,66,30.38,10.0,Calm,Calm,-,N/A,,Clear,0,2013-12-15 06:15:00
10:35 PM,44.6,32.0,61,30.39,10.0,Calm,Calm,-,N/A,,Clear,0,2013-12-15 06:35:00
10:55 PM,42.8,32.0,66,30.39,10.0,Calm,Calm,-,N/A,,Clear,0,2013-12-15 06:55:00
11:15 PM,44.6,32.0,61,30.38,10.0,ESE,4.6,-,N/A,,Clear,110,2013-12-15 07:15:00
11:35 PM,44.6,32.0,61,30.38,10.0,Calm,Calm,-,N/A,,Clear,0,2013-12-15 07:35:00
11:55 PM,41.0,32.0,70,30.38,10.0,Calm,Calm,-,N/A,,Clear,0,2013-12-15 07:55:00